Temperature
29 29 29 30 31 32 32 32 32 32 34 33 32 32 32 31 30 29 27 26 24 23 22 21 20 19 19 18 18 18 18 18 18 18 18 18 18 18 18 18 18 18 18 18
29 29 30 32 32 32 32 31 32 32 33 33 32 32 32 30 29 29 27 26 24 23 22 21 20 19 19 18 18 18 18 18 18 18 19 18 18 18 18 18 18 17 17 17
29 30 32 32 31 31 31 31 31 32 32 33 32 30 30 29 29 28 28 26 25 24 22 21 20 19 19 18 18 18 18 18 18 18 18 18 18 18 18 18 17 17 17 17
30 31 32 32 31 31 31 32 32 32 31 31 31 29 28 28 28 27 28 27 25 24 22 21 20 19 19 18 18 18 18 18 18 18 18 18 18 18 18 18 17 17 17 17
30 32 31 31 32 32 31 33 32 32 31 30 30 29 28 28 27 28 28 27 26 24 23 21 20 19 19 18 18 18 18 17 17 17 18 18 18 18 18 17 17 17 17 17
31 33 33 32 33 33 32 32 31 31 30 28 28 28 28 29 29 29 29 27 26 24 23 21 20 20 19 18 18 18 17 17 17 17 17 17 17 18 17 17 17 17 17 17
30 31 33 33 32 32 32 30 29 28 28 27 26 26 28 31 31 31 29 27 26 24 23 21 20 19 19 18 18 18 17 17 17 17 17 17 17 17 18 17 17 17 17 17
29 29 32 32 31 31 31 30 28 27 27 26 25 25 27 31 31 30 29 27 26 24 23 22 21 20 19 18 18 18 17 17 17 17 17 17 17 17 17 17 17 17 17 17
30 30 33 33 33 32 30 31 31 30 29 27 26 27 29 30 30 30 29 27 26 25 23 22 21 20 19 18 18 18 17 17 17 17 17 17 17 17 17 17 17 17 17 17
31 30 32 33 33 32 32 31 31 29 27 27 28 28 27 27 27 28 28 27 26 25 24 22 21 20 19 18 18 17 17 17 17 17 17 17 17 17 17 17 17 17 17 17
31 30 30 32 31 31 31 31 30 30 29 28 27 27 28 26 25 26 28 27 26 25 24 23 21 20 19 19 18 17 17 17 17 17 17 17 17 17 17 17 17 17 17 17
31 30 29 30 32 32 31 31 30 28 28 29 28 28 29 27 27 27 28 28 26 25 24 23 22 21 20 19 18 18 17 17 17 17 17 17 17 17 17 17 17 17 17 17
30 29 28 28 30 31 30 30 30 29 29 28 28 28 29 29 28 27 27 27 26 25 24 23 22 21 20 19 19 18 18 17 17 17 17 17 17 17 17 17 16 16 16 16
28 28 28 28 28 28 28 28 28 28 28 28 28 28 28 28 27 26 26 25 25 25 24 23 22 21 20 20 19 19 18 18 18 17 17 17 17 16 16 16 16 16 16 16
29 28 28 29 29 29 28 27 27 27 28 28 28 28 29 28 27 26 25 25 25 24 23 23 22 21 20 20 19 19 19 18 18 17 17 17 17 16 16 16 16 16 16 16
28 27 27 27 28 28 28 28 28 28 28 28 28 29 30 28 27 26 25 25 25 24 23 22 22 21 20 20 19 19 19 18 18 18 17 17 16 16 16 16 16 16 16 16
27 26 25 26 27 27 27 28 28 28 29 29 28 28 28 27 27 25 25 25 24 23 23 22 21 20 20 19 19 19 18 18 18 17 17 17 16 16 16 16 16 16 15 15
25 25 25 25 25 24 27 29 29 28 28 28 28 27 27 26 24 24 23 23 23 22 21 21 20 20 19 19 18 18 18 17 17 17 16 16 16 16 16 15 15 15 15 14
26 24 24 24 24 25 27 27 27 27 26 27 26 26 25 24 24 22 21 21 21 20 20 20 20 19 19 18 18 18 17 17 17 16 16 16 16 15 15 15 14 14 14 13
25 24 24 24 23 23 25 26 26 26 24 24 24 23 23 23 23 21 19 19 18 19 19 19 18 18 18 18 17 17 16 16 16 15 15 15 15 14 14 14 13 13 13 13
22 23 23 23 23 24 24 25 25 23 22 22 22 21 21 21 20 18 17 17 17 17 17 17 17 17 17 17 17 16 16 15 15 14 14 14 14 13 13 13 12 12 12 12
21 21 22 22 22 22 23 23 22 20 21 21 20 20 19 18 17 16 16 15 16 16 16 16 16 15 15 15 15 15 14 14 14 13 13 13 12 12 12 12 11 11 11 11
21 22 22 22 22 21 21 21 20 20 19 19 19 18 18 17 16 15 14 14 14 14 14 14 14 14 14 14 14 14 13 13 13 13 12 12 11 11 11 11 11 11 11 11
22 23 22 22 22 21 20 19 18 17 17 17 17 16 16 15 14 14 13 13 13 13 13 13 13 13 12 12 13 12 12 12 12 12 11 11 11 10 11 10 11 11 11 11
21 22 21 21 21 20 19 17 16 15 15 15 15 15 14 14 13 13 12 12 12 12 12 12 12 11 11 11 11 11 11 11 11 11 10 10 10 10 10 10 10 10 10 10
21 21 20 19 19 18 16 15 14 14 13 13 13 13 13 12 12 12 11 11 11 11 11 11 10 10 10 10 10 10 10 10 10 10 10 10 10 10 10 10 10 9 9 9
Wind_Speed
16 15 16 17 18 19 18 17 14 11 9 9 10 10 5 4 4 6 7 7 9 9 10 11 11 11 11 11 12 12 11 10 9 7 7 6 6 5 5 5 8 6 5 5
17 21 21 20 19 19 18 16 16 13 11 11 12 11 5 4 2 3 7 9 10 10 10 11 11 12 12 12 12 11 12 12 11 8 6 5 6 5 5 5 5 6 6 6
22 20 19 18 18 19 17 15 16 15 15 14 14 11 3 3 4 5 7 9 10 11 12 12 12 12 12 12 13 12 12 12 11 10 6 6 5 4 5 6 5 4 6 5
21 22 21 17 16 17 16 16 17 17 16 13 12 9 3 4 6 7 8 10 10 10 11 11 11 11 11 11 12 11 12 11 11 10 9 9 8 6 7 6 5 5 4 5
18 19 19 19 18 17 17 16 16 16 15 15 13 10 4 5 6 8 10 11 10 11 11 10 10 9 10 10 11 11 11 11 11 10 10 9 8 6 6 7 7 6 4 4
22 19 16 17 16 16 16 16 16 15 13 15 12 12 7 6 5 8 11 11 10 10 10 10 9 8 8 10 10 11 12 11 10 10 10 9 8 7 8 9 8 6 5 4
22 21 19 15 14 15 14 12 11 13 10 9 8 7 6 3 5 7 11 12 11 10 10 10 9 9 9 10 11 12 12 11 11 10 9 8 8 7 8 8 8 6 6 5
18 17 20 18 16 15 14 15 13 13 11 6 4 7 6 2 7 9 11 12 12 11 11 10 9 9 9 9 10 11 12 11 11 10 9 7 8 6 6 6 6 5 4 6
15 13 13 16 17 17 17 16 16 16 16 13 7 8 7 5 6 8 11 13 11 11 12 11 10 10 10 10 10 10 11 11 11 11 9 7 7 5 6 7 5 5 4 7
19 17 11 8 10 15 17 15 10 11 12 13 9 5 2 2 2 3 8 11 11 12 12 12 11 11 11 10 10 11 10 11 11 11 10 10 8 6 5 6 4 3 4 5
18 16 15 10 11 12 13 15 13 11 10 11 11 4 2 3 5 8 10 12 13 13 13 13 12 12 12 12 11 11 10 11 11 11 9 9 9 8 6 5 4 3 4 6
14 13 15 14 11 12 12 13 13 11 11 11 11 5 3 5 6 4 5 12 14 13 13 14 13 13 12 12 12 11 11 11 11 10 10 9 9 8 7 7 6 5 4 4
6 9 13 14 13 11 10 11 10 10 10 12 13 6 1 2 3 2 2 9 11 12 13 14 14 12 12 11 11 11 11 12 12 11 10 9 8 8 7 6 6 5 4 3
5 10 14 15 8 4 7 10 11 11 11 13 13 9 4 1 1 2 4 3 8 10 11 12 12 11 10 10 10 10 11 11 12 11 10 9 8 8 7 6 6 5 5 4
8 14 15 16 14 10 9 8 11 14 14 15 13 12 6 2 2 4 5 6 8 11 10 11 12 11 11 10 10 10 10 10 11 11 10 10 9 8 7 7 6 6 6 5
9 11 13 14 15 14 11 11 13 15 15 16 16 14 7 2 1 2 3 7 8 11 12 11 12 12 11 10 10 9 9 9 9 9 9 9 9 9 8 8 8 7 6 6
8 9 12 14 15 15 15 13 12 12 13 13 13 10 9 7 6 3 1 3 7 9 11 11 11 10 9 9 9 8 8 9 9 9 8 9 9 8 8 9 9 8 8 8
6 6 7 12 14 17 12 10 10 11 10 9 10 9 9 7 6 6 4 2 3 6 8 9 9 10 9 10 9 8 9 9 9 9 8 8 9 9 9 9 10 10 9 10
7 6 8 10 14 15 11 7 7 7 7 8 8 9 9 8 4 5 8 7 7 7 7 7 8 9 9 10 10 10 10 10 10 10 9 10 11 12 12 12 11 10 10 11
8 7 9 11 13 13 6 4 6 5 4 10 10 10 10 9 6 3 9 10 9 8 8 7 8 10 10 10 11 12 11 11 11 12 12 12 12 13 13 12 12 10 10 10
8 9 12 13 14 9 5 5 5 6 3 8 9 9 8 6 5 4 7 9 9 9 10 9 10 10 9 10 12 13 13 13 13 14 14 14 13 13 12 11 9 9 10 10
6 7 10 10 10 6 8 6 5 6 8 8 8 7 5 3 4 5 6 7 8 9 11 12 12 11 10 11 14 15 14 14 14 15 15 14 12 12 12 10 9 8 8 9
6 6 4 3 2 4 6 6 6 7 8 8 8 7 3 1 4 5 7 8 9 10 11 12 14 14 13 12 14 17 14 15 16 16 15 13 13 11 9 9 8 6 5 5
6 5 5 5 2 3 6 7 8 9 8 8 7 4 1 3 6 7 8 10 11 12 12 13 16 16 15 14 15 15 14 14 15 15 13 12 12 11 11 9 8 8 6 5
5 4 5 5 2 4 6 8 8 8 7 6 4 2 2 6 9 9 11 12 12 12 13 13 15 16 15 14 14 14 13 13 14 13 12 11 12 12 12 12 11 11 10 9
3 2 3 2 3 3 4 6 6 5 4 3 6 8 7 8 11 13 13 13 13 14 14 14 15 16 15 15 14 12 11 12 11 10 9 9 9 9 10 11 12 16 13 15
Wind_Direction
225 236 245 250 252 262 275 287 290 284 290 297 300 300 278 159 159 151 154 158 158 165 162 158 165 169 173 171 168 171 171 172 171 176 170 165 164 162 147 136 135 149 151 140
235 235 244 257 269 273 276 282 286 290 297 298 299 298 305 124 163 170 162 163 163 164 162 162 168 174 181 176 172 171 169 172 179 180 170 167 159 164 145 123 136 152 149 157
231 244 243 244 257 269 272 273 277 285 291 290 290 294 283 167 172 187 168 160 168 169 168 168 175 179 179 178 176 176 172 174 178 172 164 158 150 152 138 135 151 154 154 155
240 247 257 258 258 264 267 267 273 280 285 288 296 293 214 192 189 196 177 165 169 164 163 170 177 180 180 177 174 170 171 175 175 175 172 167 169 171 158 152 147 152 164 159
244 244 248 257 259 262 269 275 278 283 286 286 286 283 245 194 205 191 174 166 166 161 163 167 175 176 173 175 173 169 170 175 177 177 174 179 171 166 155 143 144 159 169 170
258 259 250 251 258 258 261 269 273 274 275 274 283 280 259 207 174 169 160 154 157 156 155 154 161 163 169 172 172 170 170 173 174 177 177 184 172 169 153 150 154 170 164 176
250 255 255 251 253 255 244 252 263 259 255 271 317 289 272 174 143 137 143 146 153 155 153 153 162 164 169 171 171 167 165 166 171 173 177 180 170 167 159 160 163 177 169 170
240 241 239 236 238 252 249 242 251 268 275 282 281 254 260 207 117 121 133 140 150 157 155 157 159 157 164 169 166 160 160 165 169 167 169 169 168 175 169 173 167 184 175 156
254 251 232 220 225 232 249 250 253 262 272 275 251 239 222 175 129 130 135 143 155 155 152 153 155 154 158 165 163 161 161 164 166 167 164 164 173 183 169 171 182 180 166 150
256 279 270 214 217 228 238 252 263 263 272 281 276 274 331 35 22 142 152 156 153 152 153 152 156 155 154 156 156 160 164 163 163 164 169 171 175 179 172 178 187 179 156 136
240 259 268 247 217 232 227 238 253 272 276 279 286 287 133 151 223 219 187 159 153 161 158 153 155 154 154 156 159 163 164 165 167 168 171 166 170 173 174 175 175 182 159 154
229 244 257 259 249 238 241 241 240 252 267 280 287 291 179 176 207 234 184 151 152 159 156 153 153 154 157 159 160 162 164 168 169 168 167 165 165 170 173 178 179 180 164 160
267 251 251 253 251 243 246 253 263 262 262 266 272 273 200 55 39 38 87 135 146 155 152 151 152 155 158 158 158 159 163 165 168 167 164 164 167 169 173 174 173 166 158 161
285 262 255 255 260 275 277 279 286 284 263 263 272 280 282 314 71 62 65 125 151 149 149 152 150 151 156 155 155 159 164 164 166 165 164 165 171 171 175 170 163 159 155 152
255 251 254 263 266 258 246 252 265 273 276 278 285 286 280 213 145 135 161 183 167 155 163 161 154 154 157 156 157 159 160 160 159 158 161 165 169 163 161 157 152 145 141 140
226 256 265 266 264 266 252 243 243 251 263 273 281 286 309 335 45 94 172 185 176 168 172 168 156 156 156 154 155 154 152 149 147 153 159 158 155 151 149 145 140 132 122 108
227 229 253 264 269 277 266 260 261 268 271 276 285 308 332 337 356 19 284 217 179 164 162 158 151 149 150 151 150 149 145 142 143 144 142 141 145 144 140 137 128 121 114 104
257 258 253 259 266 265 273 284 282 281 286 306 317 332 342 10 28 17 23 73 108 132 142 142 147 145 148 148 142 135 134 133 133 130 132 135 134 127 121 116 112 108 103 99
235 240 256 260 260 264 272 291 301 296 297 347 349 347 350 355 347 31 34 58 80 86 104 123 132 136 138 141 137 131 130 128 125 120 117 118 117 113 110 108 106 103 102 99
229 212 237 252 259 266 290 352 6 322 284 33 24 10 356 343 310 17 43 51 62 74 82 97 113 112 117 122 123 122 121 116 112 108 102 102 104 107 108 107 106 104 103 101
218 221 234 248 256 260 341 348 317 281 349 18 12 5 356 353 5 43 54 57 60 74 82 90 97 104 106 113 115 113 109 107 106 103 99 97 98 100 101 100 101 104 104 103
228 239 240 246 251 253 23 9 6 6 353 351 349 350 351 28 70 77 76 76 76 85 93 95 94 96 98 104 108 105 102 102 102 100 99 97 94 97 100 99 98 103 111 116
239 249 262 249 249 59 45 25 11 357 341 336 331 332 348 110 117 106 100 97 91 91 97 99 96 91 88 93 102 103 101 102 100 99 98 98 96 92 96 100 100 102 105 116
269 270 266 267 260 32 32 20 16 6 349 336 330 322 300 144 129 117 112 107 101 96 96 97 97 96 93 91 94 100 103 105 105 104 103 101 96 89 77 74 72 66 54 65
279 289 276 273 319 356 19 18 4 355 351 347 347 9 132 134 127 119 113 108 103 99 95 95 97 98 97 97 97 100 103 104 104 103 103 100 95 92 80 72 63 69 56 60
298 310 291 300 21 354 354 5 354 350 357 47 83 81 88 109 114 110 107 105 104 102 100 98 98 98 97 96 94 92 94 99 104 106 110 110 109 108 105 99 82 59 68 71
Height
1478 1480 1478 1470 1463 1460 1458 1458 1459 1453 1444 1446 1448 1448 1447 1450 1455 1459 1464 1469 1473 1477 1480 1482 1485 1487 1489 1492 1495 1499 1503 1508 1512 1516 1520 1524 1528 1532 1535 1536 1538 1541 1543 1544
1476 1475 1467 1462 1458 1456 1456 1460 1458 1450 1443 1445 1448 1448 1445 1449 1456 1459 1462 1467 1471 1475 1479 1481 1484 1486 1488 1491 1494 1497 1500 1505 1509 1514 1519 1523 1527 1531 1533 1535 1537 1540 1542 1544
1473 1464 1456 1457 1459 1460 1458 1459 1457 1455 1448 1444 1447 1453 1451 1450 1454 1458 1461 1465 1468 1472 1476 1479 1482 1484 1486 1489 1491 1494 1498 1503 1508 1512 1517 1521 1525 1529 1531 1534 1536 1539 1541 1543
1461 1456 1454 1454 1456 1456 1460 1451 1450 1451 1455 1456 1453 1468 1457 1452 1454 1457 1459 1462 1466 1470 1474 1477 1480 1482 1485 1487 1490 1493 1496 1501 1505 1510 1514 1518 1522 1526 1529 1532 1534 1537 1539 1542
1456 1451 1452 1454 1452 1451 1452 1446 1447 1449 1453 1458 1456 1466 1460 1450 1454 1452 1454 1458 1462 1467 1471 1475 1478 1481 1483 1486 1488 1491 1495 1499 1504 1508 1512 1517 1521 1525 1528 1531 1533 1536 1538 1540
1448 1444 1443 1445 1444 1445 1446 1448 1449 1450 1456 1473 1465 1469 1463 1447 1445 1444 1448 1454 1460 1464 1469 1473 1477 1479 1482 1484 1486 1489 1493 1497 1502 1506 1510 1515 1519 1523 1526 1529 1531 1534 1536 1539
1453 1445 1440 1440 1445 1444 1445 1459 1472 1474 1476 1478 1468 1471 1459 1436 1434 1438 1444 1451 1457 1463 1467 1471 1475 1478 1480 1482 1485 1487 1491 1495 1500 1504 1508 1513 1516 1520 1524 1527 1530 1533 1536 1538
1454 1453 1437 1436 1441 1447 1445 1452 1473 1483 1481 1480 1474 1476 1454 1435 1434 1438 1443 1449 1455 1461 1465 1470 1473 1476 1478 1481 1484 1486 1490 1494 1498 1502 1506 1511 1515 1519 1523 1526 1529 1532 1535 1537
1444 1443 1426 1427 1431 1438 1447 1447 1443 1456 1461 1471 1468 1457 1442 1435 1437 1439 1444 1449 1454 1459 1464 1468 1472 1475 1478 1480 1483 1486 1489 1493 1497 1500 1505 1509 1513 1517 1521 1525 1528 1531 1534 1536
1436 1444 1428 1424 1429 1431 1436 1439 1445 1454 1470 1475 1463 1457 1456 1447 1445 1443 1445 1448 1452 1457 1462 1467 1471 1474 1477 1480 1483 1486 1489 1492 1495 1499 1503 1507 1511 1515 1520 1523 1527 1530 1533 1535
1431 1442 1437 1428 1434 1437 1437 1441 1444 1446 1449 1465 1470 1462 1442 1445 1447 1446 1444 1446 1450 1455 1460 1465 1469 1473 1477 1480 1483 1485 1488 1491 1495 1499 1503 1507 1510 1514 1518 1522 1525 1528 1531 1533
1426 1434 1441 1433 1424 1424 1429 1435 1440 1456 1457 1452 1458 1459 1436 1438 1441 1442 1441 1444 1449 1453 1458 1462 1468 1472 1476 1479 1482 1484 1487 1490 1494 1498 1502 1505 1509 1513 1517 1521 1524 1527 1530 1532
1428 1436 1450 1448 1439 1430 1432 1433 1436 1440 1446 1452 1459 1456 1434 1435 1438 1442 1443 1445 1449 1453 1457 1461 1466 1471 1475 1479 1482 1484 1487 1490 1494 1497 1501 1505 1509 1512 1515 1519 1522 1525 1528 1530
1432 1438 1445 1452 1444 1440 1442 1440 1439 1445 1450 1451 1448 1445 1438 1438 1440 1442 1444 1448 1450 1453 1458 1461 1465 1470 1474 1478 1481 1484 1488 1490 1494 1497 1500 1504 1508 1511 1514 1518 1521 1524 1526 1528
1432 1439 1438 1435 1432 1433 1440 1443 1443 1446 1445 1447 1443 1440 1435 1436 1438 1442 1445 1448 1450 1453 1458 1461 1464 1469 1473 1477 1480 1484 1487 1490 1493 1496 1499 1503 1507 1510 1513 1516 1519 1521 1524 1526
1433 1439 1439 1440 1434 1433 1438 1439 1439 1440 1439 1438 1437 1436 1430 1433 1437 1440 1443 1446 1448 1451 1456 1460 1463 1467 1472 1475 1479 1483 1486 1489 1493 1496 1499 1503 1506 1509 1511 1514 1517 1520 1522 1525
1433 1441 1447 1448 1437 1437 1443 1435 1435 1435 1432 1433 1438 1436 1432 1435 1438 1441 1444 1446 1446 1449 1453 1457 1461 1465 1470 1473 1477 1481 1485 1488 1492 1495 1498 1501 1504 1507 1510 1513 1515 1518 1521 1523
1439 1442 1445 1447 1448 1460 1440 1426 1427 1430 1431 1430 1432 1434 1436 1439 1441 1443 1444 1445 1448 1449 1452 1456 1460 1464 1469 1473 1477 1481 1485 1488 1491 1494 1497 1500 1503 1505 1508 1511 1514 1517 1519 1522
1435 1442 1447 1448 1452 1446 1434 1429 1429 1433 1436 1434 1436 1438 1440 1441 1442 1445 1446 1447 1448 1450 1452 1455 1459 1463 1467 1472 1476 1480 1484 1487 1490 1493 1495 1498 1501 1504 1507 1510 1513 1516 1518 1521
1434 1439 1447 1448 1455 1456 1442 1432 1433 1436 1443 1443 1443 1444 1445 1445 1446 1450 1451 1450 1450 1451 1453 1456 1458 1462 1466 1471 1475 1479 1483 1486 1489 1492 1495 1498 1501 1504 1507 1510 1513 1517 1519 1522
1443 1444 1447 1449 1451 1444 1438 1436 1436 1449 1453 1448 1448 1449 1449 1450 1453 1454 1453 1452 1452 1453 1454 1457 1459 1463 1467 1471 1475 1479 1483 1486 1490 1493 1496 1499 1502 1505 1508 1511 1515 1518 1521 1523
1447 1449 1448 1446 1452 1452 1441 1440 1446 1451 1450 1449 1449 1450 1451 1452 1453 1454 1454 1455 1455 1455 1457 1459 1461 1465 1469 1472 1475 1479 1483 1487 1491 1494 1498 1501 1504 1508 1511 1514 1518 1521 1523 1525
1442 1442 1440 1442 1446 1444 1444 1447 1449 1450 1450 1450 1450 1450 1451 1452 1453 1455 1456 1456 1457 1458 1459 1461 1464 1467 1471 1475 1477 1480 1485 1489 1493 1496 1500 1504 1507 1511 1515 1517 1520 1523 1526 1527
1437 1435 1437 1439 1439 1442 1445 1448 1449 1450 1450 1449 1449 1449 1450 1451 1453 1454 1456 1457 1459 1461 1462 1464 1467 1470 1475 1478 1480 1483 1488 1491 1495 1499 1503 1507 1511 1514 1517 1520 1523 1525 1527 1529
1438 1437 1437 1439 1441 1443 1446 1449 1449 1449 1449 1448 1448 1448 1449 1450 1452 1454 1456 1459 1461 1464 1466 1468 1471 1475 1479 1482 1485 1488 1492 1495 1499 1503 1507 1511 1514 1517 1519 1522 1525 1527 1529 1530
1435 1438 1439 1443 1445 1447 1449 1449 1449 1448 1448 1447 1446 1447 1449 1450 1452 1455 1458 1461 1464 1467 1470 1473 1476 1479 1483 1487 1490 1494 1497 1500 1503 1507 1511 1514 1518 1521 1523 1525 1527 1529 1530 1532